Starlink 30880

operational
NORAD ID: 58232 Int'l Des: 2023-171 Owner: SPXS Country: US Constellation: starlink
LEOCIRCULAR

About Starlink 30880

Description loading...

Live Position

Loading 3D Globe...

Upcoming Passes

Altitude History

Altitude vs Time

uPlot chart will show altitude changes over time

Two-Line Element Set

1 58232U 23171C 25303.98987764 .00001136 00000-0 99164-4 0 9999
2 58232 43.0046 270.8934 0001450 272.6485 87.4191 15.02544606110214
Epoch: Oct 30, 2025 • Age: 17 hours

Current Status

Altitude 564.9 km
Velocity 7.58 km/s
Sub-Earth Point -25.75°S, 172.48°W
Launch Date Nov 8, 2023
Age 1.9 years
Type internet

Technical Details

Classification Payload
Mass 730.00 kg
Dry Mass 700.00 kg
Total Mass 730.00 kg
Length 0.30 m
Diameter 4.10 m
Span 29.00 m
Shape Box + pan
Manufacturer SPXS
Bus Type Starlink V2M
Phase Status In Orbit
Owner/State SPXS/US

Large Constellations

Loading constellations...